Regional Weather Roundup
Issued by NWS Northern Indiana

Home | Current Version | Previous Version | Text Only | Print | Product List | Glossary On
Versions: 1 2 3 4 5 6 7 8 9 10 11 12 13 14 15 16 17 18 19 20 21 22 23 24 25 26 27 28 29 30 31 32 33 34 35 36 37 38 39 40 41 42 43 44 45 46 47 48 49 50
933
ASUS43 KIWX 010510
RWRIWX

KIWX WEATHER ROUNDUP
NATIONAL WEATHER SERVICE NORTHERN INDIANA
100 AM EDT SAT OCT 01 2016

NOTE: "FAIR" INDICATES FEW OR NO CLOUDS BELOW 12,000 FEET WITH NO
SIGNIFICANT WEATHER AND/OR OBSTRUCTIONS TO VISIBILITY.

* THESE STATIONS ARE NOT UNDER NWS QUALITY CONTROL. THEY ALSO MAY NOT
  REPORT WEATHER SUCH AS PRECIPITATION OR FOG.

INZ001>027-010600-
NORTHERN INDIANA

CITY           SKY/WX    TMP DP  RH WIND       PRES   REMARKS
GARY*          CLOUDY    62  60  92 E8        30.05S
VALPARAISO     CLEAR     56  55  97 E5        30.04F
MICHIGAN CITY* CLEAR     55  55 100 CALM      30.05F
LAPORTE*       CLEAR    N/A N/A N/A NE6       30.05F
KNOX*          MOCLDY    55  50  82 E5        30.03F
SOUTH BEND     CLOUDY    59  57  93 E7        30.06F
GOSHEN         CLOUDY    60  56  86 NE5       30.04F
MONTICELLO*    CLOUDY    60  55  82 E7        30.01S
LOGANSPORT*    CLOUDY    59  55  88 E8        30.03S
ROCHESTER*     PTCLDY    59  59 100 E3        30.03F
WARSAW*        CLOUDY    57  54  88 NE7       30.04S
ANGOLA*          N/A     59  48  67 E6        30.05S
FORT WAYNE     DRIZZLE   59  57  93 NE9       30.03F FOG
HUNTINGTON*    CLOUDY    58  57  96 CALM      30.02S FOG
PERU/GRISSOM   DRIZZLE   59  59 100 E8        30.00F FOG
MARION*        CLOUDY    58  57  96 E6        30.02S FOG

$$
INZ028>050-010600-
CENTRAL INDIANA

CITY           SKY/WX    TMP DP  RH WIND       PRES   REMARKS
LAFAYETTE      CLOUDY    60  59  96 NE9       29.99F
KOKOMO*        CLOUDY    59  58  96 E5        30.02S
MUNCIE*        CLOUDY    60  57  89 SW5       30.01S
INDIANAPOLIS   MOCLDY    56  55  97 S3        30.01R

$$
MIZ043>046-050>051-056>058-064>065-071>073-077>080-010600-
SOUTHWEST LOWER MICHIGAN

CITY           SKY/WX    TMP DP  RH WIND       PRES   REMARKS
BATTLE CREEK   CLOUDY    60  60 100 NE7       30.07F
BENTON HARBOR  CLOUDY    61  56  83 E8        30.07R
COLDWATER*     CLOUDY    60  60 100 E5        30.06S
HILLSDALE*     CLOUDY    59  59 100 E7        30.06S FOG
HOLLAND        CLOUDY    61  58  90 E9        30.09S
GRAND RAPIDS   CLOUDY    60  57  89 E10       30.10S
KALAMAZOO      CLOUDY    60  57  89 E3        30.07F FOG
STURGIS*       CLOUDY    59  58  94 NE3       30.05S
THREE RIVERS*  CLOUDY    60  59  96 NE5       30.07S FOG

$$
OHZ001>008-015>018-024>025-010600-
NORTHWEST OHIO

CITY           SKY/WX    TMP DP  RH WIND       PRES   REMARKS
WAUSEON*       CLOUDY    59  59 100 E3        30.05F FOG
DEFIANCE       CLOUDY    62  58  86 NE8       30.04S
FINDLAY        CLOUDY    62  58  86 E6        30.02F
TOLEDO EXPRESS CLOUDY    60  60 100 E8        30.05S
TOLEDO METCALF LGT RAIN  61  60  97 E7        30.07S
LIMA           CLOUDY    60  60 100 E7        30.02S

$$
AND FOR LAKE MICHIGAN COASTAL AND OPEN LAKE BUOY OBSERVATIONS

STATION/POSITION TEMP    WIND        PRES    VSBY  WAVE
                 AIR SEA DIR/SP/G                  HT/PER
                 (F)     (DEG/KT/KT) (MB)    (MI)  (FT/S)
CALUMET HARBOR    62      60/  8/  9 1017.1R
MICHIGAN CITY     59      80/  8/ 10   N/A
BURNS HARBOR      60      90/  7/ 10 1017.6S
SAINT JOSEPH      61      20/  1/  6 1019.0
SOUTH LAKE BUOY   63 67   90/ 17/ 21 1017.6F         4/ 7
4 MI NW BRIDGMAN  57 50   80/  6/  8 1018.2          3/ 6
MICHIGAN CITY     61 64  100/ 12/ 16   N/A           4/ 6

$$
&&




USA.gov is the U.S. government's official web portal to all federal, state and local government web resources and services.